User: anonymous   Login
Location: Lone Wolf Observatory
(41.0360°N, 89.2260°W)
Time: 06:58:10
(UTC-06:00)
Language:

Cosmos 1378 Rocket - Orbit

View from above orbital plane
View from above orbital plane
View from above satellite
View from above satellite

Ground track
Ground track

The orbit data is extracted from the following two-line orbital elements,

1 13272U 82059B   17016.85668504  .00000087  00000-0  74665-5 0  9994
2 13272  82.5117 281.3572 0017086 256.6405 103.2906 14.84572643869445
Epoch (UTC): 16 January 2017 20:33:37
Eccentricity: 0.0017086
inclination: 82.5117°
perigee height: 603 km
apogee height: 627 km
right ascension of ascending node: 281.3572°
argument of perigee: 256.6405°
revolutions per day: 14.84572643
mean anomaly at epoch: 103.2906°
orbit number at epoch: 86944

The dashed part of the orbit path shows where the satellite is in the earth's shadow,  

DLR